User: anonymous   Login
Location: Unspecified
(0.0000°N, 0.0000°E)
Time: 03:34:23
(UTC+00:00)
Language:

DSCS III B-4 - Orbit

View from above orbital plane
View from above orbital plane
View from above satellite
View from above satellite

Ground track
Ground track

The orbit data is extracted from the following two-line orbital elements,

1 16116U 85092B   17321.27236484 0.00000000  00000-0  00000-0 0    02
2 16116  15.2977  12.4426 0004489 332.7719  27.2166  0.98984519    01
Epoch (UTC): 17 November 2017 06:32:12
Eccentricity: 0.0004489
inclination: 15.2977°
perigee height: 36132 km
apogee height: 36170 km
right ascension of ascending node: 12.4426°
argument of perigee: 332.7719°
revolutions per day: 0.98984519
mean anomaly at epoch: 27.2166°
orbit number at epoch: 0

The dashed part of the orbit path shows where the satellite is in the earth's shadow,  

DLR